When you browse on this site, cookies collect data to enhance your experience and personalize the content and advertising you see.
Visit our Privacy Policy to learn more. By continuing to use the site, you agree to this use of cookies and data.
  • En España
  • Lista de países
  • Para 7 días
  • Temperatura del agua
  • Mapa Satelital
  • El tiempo en el mapa
  • Informadores
  • user-avatar
    Iniciar sesión

    Tiempo cada hora Elbasan

    Hoy, 23 Mayo, Jueves

    Tiempo Temperatura Precipitaciones Viento Presión Humedad
    00:00 +13°C° 0 mm 1 mps 735 mmHg 79%
    01:00 +13°C° 0 mm 1 mps 735 mmHg 77%
    02:00 +13°C° 0 mm 1 mps 735 mmHg 75%
    03:00 +13°C° 0 mm 1 mps 735 mmHg 74%
    04:00 +13°C° 0 mm 1 mps 735 mmHg 73%
    05:00 +14°C° 0 mm 1 mps 735 mmHg 70%
    06:00 +16°C° 0 mm 1 mps 735 mmHg 66%
    07:00 +19°C° 0 mm 1 mps 735 mmHg 63%
    08:00 +20°C° 0 mm 1 mps 735 mmHg 60%
    09:00 +21°C° 0 mm 1 mps 735 mmHg 56%
    10:00 +21°C° 0 mm 2 mps 735 mmHg 53%
    11:00 +23°C° 0.1 mm 2 mps 735 mmHg 53%
    12:00 +22°C° 0.1 mm 3 mps 734 mmHg 54%
    13:00 +22°C° 0.1 mm 3 mps 734 mmHg 54%
    14:00 +22°C° 0.1 mm 3 mps 734 mmHg 57%
    15:00 +21°C° 0.1 mm 3 mps 733 mmHg 60%
    16:00 +21°C° 0.1 mm 3 mps 733 mmHg 63%
    17:00 +19°C° 0 mm 2 mps 733 mmHg 69%
    18:00 +17°C° 0 mm 2 mps 733 mmHg 76%
    19:00 +15°C° 0 mm 1 mps 733 mmHg 83%
    20:00 +15°C° 0 mm 1 mps 733 mmHg 85%
    21:00 +13°C° 0 mm 0 mps 734 mmHg 86%
    22:00 +12°C° 0 mm 0 mps 734 mmHg 88%
    23:00 +12°C° 0 mm 0 mps 734 mmHg 87%

    Mañana, 24 Mayo, Viernes

    Tiempo Temperatura Precipitaciones Viento Presión Humedad
    00:00 +13°C° 0 mm 1 mps 733 mmHg 87%
    01:00 +13°C° 0 mm 1 mps 733 mmHg 86%
    02:00 +12°C° 0 mm 1 mps 733 mmHg 86%
    03:00 +11°C° 0 mm 0 mps 733 mmHg 85%
    04:00 +11°C° 0 mm 0 mps 733 mmHg 85%
    05:00 +13°C° 0 mm 0 mps 733 mmHg 80%
    06:00 +15°C° 0 mm 1 mps 733 mmHg 75%
    07:00 +18°C° 0 mm 1 mps 733 mmHg 70%
    08:00 +19°C° 0 mm 1 mps 733 mmHg 67%
    09:00 +19°C° 0 mm 2 mps 733 mmHg 64%
    10:00 +21°C° 0 mm 2 mps 733 mmHg 61%
    11:00 +21°C° 0.2 mm 3 mps 733 mmHg 61%
    12:00 +21°C° 0.2 mm 3 mps 733 mmHg 62%
    13:00 +22°C° 0.2 mm 3 mps 733 mmHg 62%
    14:00 +21°C° 0.3 mm 3 mps 733 mmHg 64%
    15:00 +21°C° 0.3 mm 3 mps 732 mmHg 67%
    16:00 +21°C° 0.3 mm 3 mps 732 mmHg 69%
    17:00 +19°C° 0 mm 2 mps 732 mmHg 76%
    18:00 +17°C° 0 mm 2 mps 732 mmHg 83%
    19:00 +16°C° 0 mm 1 mps 733 mmHg 90%
    20:00 +15°C° 0 mm 1 mps 733 mmHg 91%
    21:00 +15°C° 0 mm 1 mps 733 mmHg 92%
    22:00 +14°C° 0 mm 1 mps 734 mmHg 92%
    23:00 +14°C° 0 mm 1 mps 734 mmHg 91%

    Pasado mañana, 25 Mayo, Sábado

    Tiempo Temperatura Precipitaciones Viento Presión Humedad
    00:00 +13°C° 0 mm 1 mps 733 mmHg 90%
    01:00 +13°C° 0 mm 1 mps 733 mmHg 89%
    02:00 +13°C° 0 mm 1 mps 733 mmHg 88%
    03:00 +13°C° 0 mm 1 mps 733 mmHg 87%
    04:00 +12°C° 0 mm 1 mps 734 mmHg 86%
    05:00 +13°C° 0 mm 0 mps 734 mmHg 81%
    06:00 +15°C° 0 mm 0 mps 734 mmHg 75%
    07:00 +17°C° 0 mm 0 mps 734 mmHg 69%
    08:00 +20°C° 0 mm 1 mps 734 mmHg 65%
    09:00 +22°C° 0 mm 1 mps 734 mmHg 60%
    10:00 +23°C° 0 mm 2 mps 735 mmHg 55%
    11:00 +23°C° 0 mm 2 mps 734 mmHg 54%
    12:00 +24°C° 0 mm 3 mps 734 mmHg 53%
    13:00 +25°C° 0 mm 3 mps 734 mmHg 51%
    14:00 +24°C° 0 mm 3 mps 734 mmHg 54%
    15:00 +24°C° 0 mm 3 mps 734 mmHg 56%
    16:00 +24°C° 0 mm 3 mps 734 mmHg 58%
    17:00 +21°C° 0 mm 2 mps 734 mmHg 66%
    18:00 +20°C° 0 mm 1 mps 734 mmHg 75%
    19:00 +18°C° 0 mm 1 mps 734 mmHg 83%
    20:00 +16°C° 0 mm 1 mps 734 mmHg 84%
    21:00 +16°C° 0 mm 1 mps 735 mmHg 84%
    22:00 +16°C° 0 mm 1 mps 735 mmHg 85%
    23:00 +16°C° 0 mm 1 mps 735 mmHg 83%

    26 Mayo, Domingo

    Tiempo Temperatura Precipitaciones Viento Presión Humedad
    00:00 +15°C° 0 mm 1 mps 735 mmHg 82%
    01:00 +15°C° 0 mm 1 mps 734 mmHg 81%
    02:00 +15°C° 0 mm 1 mps 734 mmHg 79%
    03:00 +15°C° 0 mm 1 mps 734 mmHg 76%
    04:00 +16°C° 0 mm 1 mps 734 mmHg 74%
    05:00 +18°C° 0 mm 1 mps 734 mmHg 69%
    06:00 +20°C° 0 mm 1 mps 734 mmHg 64%
    07:00 +21°C° 0 mm 1 mps 734 mmHg 58%
    08:00 +23°C° 0 mm 1 mps 735 mmHg 53%
    09:00 +24°C° 0 mm 1 mps 735 mmHg 48%
    10:00 +25°C° 0 mm 1 mps 735 mmHg 42%
    11:00 +25°C° 0 mm 2 mps 735 mmHg 46%
    12:00 +25°C° 0 mm 2 mps 735 mmHg 50%
    13:00 +25°C° 0 mm 2 mps 735 mmHg 54%
    14:00 +25°C° 0 mm 2 mps 734 mmHg 53%
    15:00 +26°C° 0 mm 1 mps 734 mmHg 52%
    16:00 +26°C° 0 mm 1 mps 734 mmHg 52%
    17:00 +24°C° 0 mm 1 mps 734 mmHg 57%
    18:00 +23°C° 0 mm 1 mps 734 mmHg 63%
    19:00 +19°C° 0 mm 0 mps 734 mmHg 69%
    20:00 +21°C° 0 mm 1 mps 734 mmHg 69%
    21:00 +21°C° 0 mm 1 mps 734 mmHg 70%
    22:00 +20°C° 0 mm 1 mps 734 mmHg 70%
    23:00 +20°C° 0 mm 1 mps 734 mmHg 71%

    27 Mayo, Lunes

    Tiempo Temperatura Precipitaciones Viento Presión Humedad
    00:00 +19°C° 0 mm 1 mps 734 mmHg 72%
    01:00 +18°C° 0 mm 2 mps 734 mmHg 73%
    02:00 +18°C° 0 mm 2 mps 734 mmHg 72%
    03:00 +18°C° 0 mm 2 mps 734 mmHg 71%
    04:00 +18°C° 0 mm 2 mps 734 mmHg 70%
    05:00 +19°C° 0 mm 2 mps 734 mmHg 69%
    06:00 +21°C° 0 mm 2 mps 734 mmHg 68%
    07:00 +23°C° 0 mm 2 mps 734 mmHg 68%
    08:00 +24°C° 0 mm 2 mps 734 mmHg 63%
    09:00 +26°C° 0 mm 2 mps 734 mmHg 58%
    10:00 +27°C° 0 mm 2 mps 734 mmHg 52%
    11:00 +27°C° 0.2 mm 2 mps 734 mmHg 55%
    12:00 +26°C° 0.2 mm 2 mps 734 mmHg 58%
    13:00 +26°C° 0.2 mm 2 mps 734 mmHg 61%
    14:00 +25°C° 1.2 mm 2 mps 733 mmHg 67%
    15:00 +24°C° 1.2 mm 2 mps 733 mmHg 74%
    16:00 +21°C° 1.2 mm 2 mps 733 mmHg 81%
    17:00 +21°C° 0 mm 2 mps 733 mmHg 82%
    18:00 +21°C° 0 mm 2 mps 732 mmHg 83%
    19:00 +20°C° 0 mm 2 mps 732 mmHg 84%
    20:00 +20°C° 0.2 mm 2 mps 732 mmHg 85%
    21:00 +20°C° 0.2 mm 2 mps 732 mmHg 85%
    22:00 +19°C° 0.2 mm 2 mps 732 mmHg 86%
    23:00 +19°C° 0.9 mm 2 mps 732 mmHg 87%

    28 Mayo, Martes

    Tiempo Temperatura Precipitaciones Viento Presión Humedad
    00:00 +19°C° 0.9 mm 1 mps 731 mmHg 89%
    01:00 +19°C° 0.9 mm 1 mps 731 mmHg 90%
    02:00 +19°C° 0.8 mm 1 mps 731 mmHg 90%
    03:00 +18°C° 0.8 mm 1 mps 731 mmHg 90%
    04:00 +18°C° 0.8 mm 1 mps 730 mmHg 91%
    05:00 +19°C° 0.4 mm 1 mps 731 mmHg 85%
    06:00 +21°C° 0.4 mm 1 mps 731 mmHg 80%
    07:00 +22°C° 0.4 mm 1 mps 731 mmHg 75%
    08:00 +23°C° 0.8 mm 1 mps 731 mmHg 71%
    09:00 +24°C° 0.8 mm 2 mps 731 mmHg 67%
    10:00 +25°C° 0.8 mm 2 mps 731 mmHg 62%
    11:00 +25°C° 1.1 mm 2 mps 731 mmHg 63%
    12:00 +25°C° 1.1 mm 2 mps 730 mmHg 64%
    13:00 +25°C° 1.1 mm 3 mps 730 mmHg 65%
    14:00 +24°C° 0.8 mm 3 mps 730 mmHg 68%
    15:00 +24°C° 0.8 mm 3 mps 730 mmHg 71%
    16:00 +22°C° 0.8 mm 3 mps 730 mmHg 74%
    17:00 +21°C° 0.3 mm 2 mps 731 mmHg 80%
    18:00 +20°C° 0.3 mm 2 mps 731 mmHg 85%
    19:00 +19°C° 0.3 mm 1 mps 731 mmHg 91%
    20:00 +19°C° 0 mm 1 mps 732 mmHg 92%
    21:00 +18°C° 0 mm 1 mps 732 mmHg 93%
    22:00 +16°C° 0 mm 1 mps 732 mmHg 94%
    23:00 +16°C° 0 mm 1 mps 732 mmHg 93%
    Mostrar más